Hourly Data Report for February 17, 2021

KUGAARUK CLIMATE
NUNAVUT
Current Station Operator: ECCC - MSC

68°32'15.060" N
89°47'47.020" W
15.80 m
2303094
71407
NBB

Download Data

Hourly Data (February 2021)
Hourly Data Report for February 17, 2021
TIME
LST
Temp Definition
°C
Dew Point Definition
°C
Rel Hum Definition
%
Precip. Amount Definition
mm

Wind Dir Definition
10's deg

Wind Spd Definition
km/h
Visibility Definition
km
Stn Press Definition
kPa
Hmdx Definition


Wind Chill Definition


Weather Definition


00:00 -36.9 -40.7 68 0.0 22 27   100.60   -54 LegendNANA
01:00 -36.9 -40.6 69 0.0 24 31   100.59   -55 LegendNANA
02:00 -36.7 -40.5 68 0.0 24 36   100.56   -56 LegendNANA
03:00 -36.5 -40.3 68 0.2 24 37   100.57   -56 LegendNANA
04:00 -35.9 -39.8 68 0.0 24 37   100.58   -55 LegendNANA
05:00 -36.1 -39.8 69 0.0 24 37   100.53   -55 LegendNANA
06:00 -35.7 -39.4 69 0.0 24 28   100.53   -53 LegendNANA
07:00 -35.7 -39.3 69 0.0 24 39   100.49   -55 LegendNANA
08:00 -35.4 -39.1 69 0.0 24 36   100.50   -54 LegendNANA
09:00 -35.5 -39.2 69 0.0 25 34   100.50   -54 LegendNANA
10:00 -35.6 -39.4 68 0.0 25 37   100.51   -54 LegendNANA
11:00 -35.5 -39.2 68 0.0 25 42   100.47   -55 LegendNANA
12:00 -34.9 -38.6 69 0.0 24 34   100.49   -53 LegendNANA
13:00 -34.5 -38.1 69 0.0 24 39   100.43   -53 LegendNANA
14:00 -33.8 -37.5 69 0.0 23 44   100.37   -53 LegendNANA
15:00 -33.4 -37.1 69 0.0 23 38   100.36   -52 LegendNANA
16:00 -32.6 -36.1 71 0.0 23 41   100.27   -51 LegendNANA
17:00 -31.8 -35.2 71 0.2 25 53   100.21   -52 LegendNANA
18:00 -31.8 -35.2 72 0.0 25 40   100.24   -50 LegendNANA
19:00 -32.0 -35.4 72 0.0 25 34   100.25   -49 LegendNANA
20:00 -31.7 -35.0 72 0.0 25 38   100.21   -49 LegendNANA
21:00 -31.2 -34.5 73 0.0 25 41   100.16   -49 LegendNANA
22:00 -30.8 -34.1 73 0.0 25 33   100.15   -47 LegendNANA
23:00 -30.6 -33.8 73 0.0 24 28   100.14   -46 LegendNANA

Notes on Data Quality.

Legend

  • E = Estimated
  • M = Missing
  • NA = Not Available*
  • [empty] = Indicates an unobserved value
Date modified: